Weather History for Malmstrom AFB, MT

Change the Weather History Date:

Tuesday, April 29, 2014

  Actual Average (KGTF) Record (KGTF)
Temperature  
Mean Temperature 46 °F 47 °F  
Max Temperature 59 °F 60 °F 87 °F (1939)
Min Temperature 34 °F 34 °F 14 °F (1954)
Degree Days  
Heating Degree Days 18 18  
Month to date heating degree days 641  
Since 1 July heating degree days 7099  
Cooling Degree Days 0 0  
Month to date cooling degree days 0  
Year to date cooling degree days 0  
Moisture  
Dew Point 21 °F    
Average Humidity 37    
Maximum Humidity 64    
Minimum Humidity 18    
Precipitation  
Precipitation 0.00 in 0.05 in 1.02 in (2010)
Month to date precipitation 1.37  
Year to date precipitation 3.26  
Snow  
Snow 0.00 in 0.20 in 16.10 in (2009)
Month to date snowfall 8.4  
Since 1 July snowfall 60.3  
Snow Depth -    
Sea Level Pressure  
Sea Level Pressure 30.58 in    
Wind  
Wind Speed 9 mph (WNW)    
Max Wind Speed 18 mph    
Max Gust Speed 25 mph    
Visibility 10 miles    
Events      
T = Trace of Precipitation, MM = Missing Value Source: NWS Daily Summary

Daily Weather History Graph

Daily Weather History Graph

Search for Another Location

Airport:

Trip Planner

Search our weather history database for the weather conditions in past years. The results will help you decide how hot, cold, wet, or windy it might be!

Date:

Astronomy

Apr. 29, 2014 Rise Set
Actual Time 6:11 AM MDT 8:33 PM MDT
Civil Twilight 5:37 AM MDT 9:08 PM MDT
Nautical Twilight 4:54 AM MDT 9:50 PM MDT
Astronomical Twilight 4:06 AM MDT 10:39 PM MDT
Moon 6:32 AM MDT (4/29) 9:19 PM MDT (4/29)
Length of Visible Light 15h 31m
Length of Day
14h 22m
New Moon, 0% of the Moon is Illuminated
Apr 29
New Moon
May 6
First Quarter
May 14
Full
May 21
Last Quarter
May 28
New

Hourly Weather History & Observations

Time (MDT) Temp. Windchill Dew Point Humidity Pressure Visibility Wind Dir Wind Speed Gust Speed Precip Events Conditions
12:56 AM 39.9 °F 34.5 °F 21.9 °F 49% 30.44 in 10.0 mi SSW 8.1 mph - N/A   Overcast
1:56 AM 39.0 °F 34.0 °F 23.0 °F 53% 30.47 in 10.0 mi SW 6.9 mph - N/A   Overcast
2:56 AM 39.0 °F 32.8 °F 21.9 °F 50% 30.48 in 10.0 mi SW 9.2 mph - N/A   Mostly Cloudy
3:56 AM 34.0 °F 26.0 °F 23.0 °F 64% 30.50 in 10.0 mi SSW 10.4 mph - N/A   Partly Cloudy
4:56 AM 37.0 °F 30.4 °F 23.0 °F 57% 30.52 in 10.0 mi SW 9.2 mph - N/A   Mostly Cloudy
5:56 AM 36.0 °F 29.6 °F 25.0 °F 64% 30.53 in 10.0 mi SSW 8.1 mph - N/A   Overcast
6:56 AM 39.0 °F 33.4 °F 23.0 °F 53% 30.57 in 10.0 mi WSW 8.1 mph - N/A   Overcast
7:56 AM 42.1 °F 35.7 °F 23.0 °F 47% 30.59 in 10.0 mi SW 11.5 mph - N/A   Overcast
8:56 AM 46.0 °F 41.4 °F 25.0 °F 44% 30.60 in 10.0 mi West 9.2 mph - N/A   Clear
9:56 AM 51.1 °F - 24.1 °F 35% 30.60 in 10.0 mi NW 15.0 mph 25.3 mph N/A   Clear
10:56 AM 53.1 °F - 24.1 °F 32% 30.61 in 10.0 mi NNW 15.0 mph - N/A   Clear
12:56 PM 57.0 °F - 19.9 °F 24% 30.61 in 10.0 mi North 18.4 mph 25.3 mph N/A   Scattered Clouds
1:56 PM 55.0 °F - 19.0 °F 24% 30.62 in 10.0 mi NNW 15.0 mph - N/A   Mostly Cloudy
2:56 PM 57.0 °F - 19.9 °F 24% 30.61 in 10.0 mi NNW 5.8 mph - N/A   Mostly Cloudy
3:56 PM 57.9 °F - 19.0 °F 22% 30.62 in 10.0 mi NNW 15.0 mph 24.2 mph N/A   Mostly Cloudy
4:56 PM 59.0 °F - 18.0 °F 20% 30.61 in 10.0 mi NNW 13.8 mph - N/A   Scattered Clouds
5:56 PM 59.0 °F - 16.0 °F 19% 30.60 in 10.0 mi NNW 13.8 mph - N/A   Partly Cloudy
6:56 PM 57.9 °F - 14.0 °F 18% 30.60 in 10.0 mi NW 12.7 mph - N/A   Partly Cloudy
7:56 PM 55.9 °F - 16.0 °F 21% 30.60 in 10.0 mi NNW 9.2 mph - N/A   Clear
8:56 PM 51.1 °F - 18.0 °F 27% 30.60 in 10.0 mi NNW 3.5 mph - N/A   Clear
9:56 PM 48.9 °F - 17.1 °F 28% 30.61 in 10.0 mi NW 3.5 mph - N/A   Clear
10:56 PM 46.9 °F - 18.0 °F 32% 30.61 in 10.0 mi Calm Calm - N/A   Clear
11:56 PM 37.0 °F - 21.9 °F 54% 30.63 in 10.0 mi Calm Calm - N/A   Clear